DW4161 Weather Reports


Display with metric or nautical units.
time (UTC)temp
F
wind
direction
speed
MPH
gust
MPH
rain 1hr
in
rain 24hr
in
rain mn
in
humidity
%
barometer
mb
20180622221406 73 311 10.0 26.0 0.00 0.00 0.00 14 1018.4
20180622215904 70 312 13.0 31.0 0.00 0.00 0.00 14 1018.4
20180622214403 70 346 12.0 28.0 0.00 0.00 0.00 15 1018.3
20180622212901 71 318 10.0 21.0 0.00 0.00 0.00 15 1018.8
20180622211401 70 318 15.0 37.0 0.00 0.00 0.00 15 1018.9
20180622205901 72 27 11.0 27.0 0.00 0.00 0.00 15 1018.7
20180622202859 72 321 6.0 22.0 0.00 0.00 0.00 15 1018.8
20180622201358 72 309 10.0 24.0 0.00 0.00 0.00 14 1018.8
20180622195856 74 332 8.0 20.0 0.00 0.00 0.00 14 1018.8
20180622194354 73 34 10.0 24.0 0.00 0.00 0.00 15 1019.0
20180622192851 73 290 6.0 14.0 0.00 0.00 0.00 17 1019.3
20180622191347 70 313 6.0 10.0 0.00 0.00 0.00 24 1019.5
20180622185846 67 146 1.0 8.0 0.00 0.00 0.00 28 1020.2
20180622184342 64 156 4.0 7.0 0.00 0.00 0.00 34 1020.7
20180622182841 59 143 1.0 3.0 0.00 0.00 0.00 39 1021.1
20180622181341 59 120 4.0 9.0 0.00 0.00 0.00 39 1021.6
20180622175839 57 253 5.0 11.0 0.00 0.00 0.00 46 1023.5
20180622174338 58 346 2.0 7.0 0.00 0.00 0.00 50 1022.2
20180622172837 65 333 5.0 8.0 0.00 0.00 0.00 35 1021.7
20180622171334 68 61 2.0 5.0 0.00 0.00 0.00 33 1021.0
20180622165833 69 326 4.0 9.0 0.00 0.00 0.00 33 1021.4
20180622164328 68 27 3.0 11.0 0.00 0.00 0.00 34 1021.8
20180622162825 67 342 4.0 9.0 0.00 0.00 0.00 34 1022.2
20180622161325 66 342 4.0 9.0 0.00 0.00 0.00 37 1022.3
20180622155823 65 345 5.0 9.0 0.00 0.00 0.00 39 1022.2
20180622152818 63 323 3.0 8.0 0.00 0.00 0.00 50 1022.2
20180622151312 62 333 3.0 6.0 0.00 0.00 0.00 55 1022.4
20180622145808 61 93 3.0 6.0 0.00 0.00 0.00 59 1022.2
20180622144307 60 105 3.0 6.0 0.00 0.00 0.00 61 1022.2
20180622142807 60 337 2.0 5.0 0.00 0.00 0.00 64 1022.6
20180622141304 58 94 2.0 6.0 0.00 0.00 0.00 76 1022.5
20180622135757 56 118 2.0 5.0 0.00 0.00 0.00 80 1022.7
20180622134300 54 316 0.0 3.0 0.00 0.00 0.00 84 1022.9
20180622132756 54 347 0.0 2.0 0.00 0.00 0.00 85 1023.0
20180622131255 52 314 0.0 2.0 0.00 0.00 0.00 92 1022.9
20180622125755 51 159 0.0 3.0 0.00 0.00 0.00 94 1022.6
20180622124256 50 145 0.0 3.0 0.00 0.00 0.00 94 1022.5
20180622121251 49 136 0.0 0.0 0.00 0.00 0.00 91 1022.4
20180622115748 50 236 0.0 0.0 0.00 0.00 0.00 90 1022.5
20180622114249 50 234 0.0 2.0 0.00 0.00 0.00 90 1022.5
20180622111345 51 266 0.0 2.0 0.00 0.00 0.00 88 1022.6
20180622105745 51 356 0.0 3.0 0.00 0.00 0.00 88 1022.8
20180622104243 50 342 0.0 0.0 0.00 0.00 0.00 86 1022.7
20180622102739 51 215 0.0 2.0 0.00 0.00 0.00 86 1022.7
20180622101239 51 338 0.0 5.0 0.00 0.00 0.00 84 1022.7
20180622095734 51 320 0.0 1.0 0.00 0.00 0.00 82 1022.8
20180622094236 51 225 1.0 4.0 0.00 0.00 0.00 82 1022.8
20180622092734 52 355 1.0 5.0 0.00 0.00 0.00 81 1023.1
20180622091229 52 316 1.0 3.0 0.00 0.00 0.00 80 1023.1
20180622085726 52 207 1.0 5.0 0.00 0.00 0.00 79 1023.1
20180622084224 53 215 2.0 5.0 0.00 0.00 0.00 79 1023.0
20180622082723 53 253 1.0 4.0 0.00 0.00 0.00 79 1023.1
20180622075719 53 203 1.0 5.0 0.00 0.00 0.00 77 1023.5
20180622074217 54 196 2.0 7.0 0.00 0.00 0.00 76 1023.5
20180622072712 54 203 6.0 10.0 0.00 0.00 0.00 75 1023.8
20180622064207 55 194 1.0 5.0 0.00 0.00 0.00 69 1024.5
20180622062706 56 170 3.0 8.0 0.00 0.00 0.00 69 1024.7
20180622054156 56 115 4.0 9.0 0.00 0.00 0.00 60 1024.8
20180622052658 57 131 4.0 7.0 0.00 0.00 0.00 56 1024.8
20180622051155 57 141 5.0 9.0 0.00 0.00 0.00 53 1024.9
20180622045655 57 153 4.0 7.0 0.00 0.00 0.00 51 1025.0
20180622044154 58 120 3.0 6.0 0.00 0.00 0.00 51 1025.0
20180622042657 59 108 3.0 6.0 0.00 0.00 0.00 50 1025.3
20180622041154 58 99 2.0 4.0 0.00 0.00 0.00 51 1025.4
20180622035652 57 94 0.0 4.0 0.00 0.00 0.00 53 1025.2
20180622034154 58 104 1.0 3.0 0.00 0.00 0.00 53 1025.3
20180622032652 59 97 1.0 4.0 0.00 0.00 0.00 52 1025.2
20180622031152 59 111 1.0 5.0 0.00 0.00 0.00 52 1025.0
20180622025651 60 342 1.0 5.0 0.00 0.00 0.00 51 1024.9
20180622024150 60 64 1.0 8.0 0.00 0.00 0.00 50 1024.8
20180622022650 61 340 1.0 6.0 0.00 0.00 0.00 49 1024.9
20180622021153 63 130 1.0 7.0 0.00 0.00 0.00 47 1024.9
20180622015649 63 130 0.0 5.0 0.00 0.00 0.00 47 1024.8
20180622014150 64 57 1.0 9.0 0.00 0.00 0.00 47 1024.6
20180622012651 65 107 2.0 10.0 0.00 0.00 0.00 45 1024.6
20180622011147 67 1 5.0 12.0 0.00 0.00 0.00 41 1024.4
20180622005647 68 354 1.0 6.0 0.00 0.00 0.00 33 1024.5
20180622004145 68 117 3.0 8.0 0.00 0.00 0.00 32 1024.5
20180622002646 69 131 5.0 11.0 0.00 0.00 0.00 31 1024.4
20180622001146 69 93 1.0 8.0 0.00 0.00 0.00 32 1024.4
20180621235643 69 82 4.0 9.0 0.00 0.00 0.00 33 1024.3
20180621234145 68 114 3.0 11.0 0.00 0.00 0.00 33 1024.4
20180621232643 69 97 6.0 12.0 0.00 0.00 0.00 33 1024.5
20180621231144 69 91 4.0 10.0 0.00 0.00 0.00 33 1024.5
20180621225640 69 121 8.0 12.0 0.00 0.00 0.00 32 1024.3
20180621222641 72 94 8.0 19.0 0.00 0.00 0.00 28 1024.1